Time,TemperatureF,DewpointF,PressureIn,WindDirection,WindDirectionDegrees,WindSpeedMPH,WindSpeedGustMPH,Humidity,HourlyPrecipIn,Conditions,Clouds,dailyrainin,SoftwareType,DateUTC
2017-06-25 00:03:00,70.6,59.0,29.90,NW,315,3.3,4.0,67,0.00,,,0.00,Rainwise IP-100,2017-06-25 04:03:00,
2017-06-25 00:08:00,70.4,59.0,29.90,NNW,337,3.0,4.0,68,0.00,,,0.00,Rainwise IP-100,2017-06-25 04:08:00,
2017-06-25 00:13:00,70.2,59.0,29.90,NNW,337,3.3,4.0,68,0.00,,,0.00,Rainwise IP-100,2017-06-25 04:13:00,
2017-06-25 00:18:00,70.0,59.0,29.90,NNW,337,3.3,3.3,68,0.00,,,0.00,Rainwise IP-100,2017-06-25 04:18:00,
2017-06-25 00:24:00,69.8,59.0,29.90,NNW,337,2.6,3.0,68,0.00,,,0.00,Rainwise IP-100,2017-06-25 04:24:00,
2017-06-25 00:29:00,69.7,59.0,29.90,NNW,337,2.3,3.0,68,0.00,,,0.00,Rainwise IP-100,2017-06-25 04:29:00,
2017-06-25 00:34:00,69.7,59.0,29.90,NNW,337,2.3,3.0,69,0.00,,,0.00,Rainwise IP-100,2017-06-25 04:34:00,
2017-06-25 00:39:00,69.6,59.0,29.90,NNW,337,3.3,3.3,69,0.00,,,0.00,Rainwise IP-100,2017-06-25 04:39:00,
2017-06-25 00:44:00,69.6,59.0,29.90,NNW,337,2.3,3.0,69,0.00,,,0.00,Rainwise IP-100,2017-06-25 04:44:00,
2017-06-25 00:49:00,69.4,59.0,29.90,NNW,337,1.9,3.0,69,0.00,,,0.00,Rainwise IP-100,2017-06-25 04:49:00,
2017-06-25 00:54:00,69.2,59.0,29.91,NNW,337,2.3,3.0,69,0.00,,,0.00,Rainwise IP-100,2017-06-25 04:54:00,
2017-06-25 00:59:00,69.2,59.0,29.90,NNW,337,3.5,4.0,69,0.00,,,0.00,Rainwise IP-100,2017-06-25 04:59:00,
2017-06-25 01:04:00,69.2,59.0,29.90,NNW,337,3.0,4.0,69,0.00,,,0.00,Rainwise IP-100,2017-06-25 05:04:00,
2017-06-25 01:09:00,69.2,59.0,29.90,NNW,337,3.3,4.0,69,0.00,,,0.00,Rainwise IP-100,2017-06-25 05:09:00,
2017-06-25 01:14:00,69.2,59.0,29.90,NW,315,3.5,4.0,69,0.00,,,0.00,Rainwise IP-100,2017-06-25 05:14:00,
2017-06-25 01:19:00,69.2,59.0,29.90,NW,315,3.3,4.0,69,0.00,,,0.00,Rainwise IP-100,2017-06-25 05:19:00,
2017-06-25 01:24:00,69.3,59.0,29.90,NW,315,3.3,3.3,69,0.00,,,0.00,Rainwise IP-100,2017-06-25 05:24:00,
2017-06-25 01:29:00,69.3,59.0,29.90,NW,315,3.0,4.0,69,0.00,,,0.00,Rainwise IP-100,2017-06-25 05:29:00,
2017-06-25 01:34:00,69.3,59.0,29.90,NW,315,3.0,3.0,69,0.00,,,0.00,Rainwise IP-100,2017-06-25 05:34:00,
2017-06-25 01:37:00,69.3,59.0,29.90,NW,315,2.1,3.0,69,0.00,,,0.00,Rainwise IP-100,2017-06-25 05:37:00,
2017-06-25 01:42:00,69.3,59.0,29.91,NW,315,3.5,3.5,69,0.00,,,0.00,Rainwise IP-100,2017-06-25 05:42:00,
2017-06-25 01:47:00,69.3,59.0,29.90,NW,315,3.5,4.0,69,0.00,,,0.00,Rainwise IP-100,2017-06-25 05:47:00,
2017-06-25 01:52:00,69.2,59.0,29.90,NW,315,4.0,4.0,69,0.00,,,0.00,Rainwise IP-100,2017-06-25 05:52:00,
2017-06-25 01:57:00,69.0,59.0,29.90,NW,315,3.7,4.0,70,0.00,,,0.00,Rainwise IP-100,2017-06-25 05:57:00,
2017-06-25 02:02:00,69.0,58.0,29.90,NW,315,1.6,3.0,69,0.00,,,0.00,Rainwise IP-100,2017-06-25 06:02:00,
2017-06-25 02:07:00,69.1,58.0,29.91,NW,315,2.1,3.0,69,0.00,,,0.00,Rainwise IP-100,2017-06-25 06:07:00,
2017-06-25 02:12:00,69.1,58.0,29.90,NW,315,1.6,2.0,69,0.00,,,0.00,Rainwise IP-100,2017-06-25 06:12:00,
2017-06-25 02:17:00,68.9,58.0,29.90,NW,315,1.9,2.0,69,0.00,,,0.00,Rainwise IP-100,2017-06-25 06:17:00,
2017-06-25 02:22:00,68.7,57.0,29.90,NW,315,1.9,2.0,69,0.00,,,0.00,Rainwise IP-100,2017-06-25 06:22:00,
2017-06-25 02:27:00,68.3,57.0,29.90,NW,315,1.6,2.0,70,0.00,,,0.00,Rainwise IP-100,2017-06-25 06:27:00,
2017-06-25 02:32:00,67.9,58.0,29.90,NW,315,2.3,3.0,71,0.00,,,0.00,Rainwise IP-100,2017-06-25 06:32:00,
2017-06-25 02:37:00,67.4,59.0,29.91,NW,315,3.0,3.0,73,0.00,,,0.00,Rainwise IP-100,2017-06-25 06:37:00,
2017-06-25 02:42:00,67.3,58.0,29.90,NW,315,2.1,3.0,73,0.00,,,0.00,Rainwise IP-100,2017-06-25 06:42:00,
2017-06-25 02:47:00,67.3,58.0,29.90,NW,315,2.3,3.0,73,0.00,,,0.00,Rainwise IP-100,2017-06-25 06:47:00,
2017-06-25 02:50:00,67.2,58.0,29.90,NW,315,3.0,3.0,73,0.00,,,0.00,Rainwise IP-100,2017-06-25 06:50:00,
2017-06-25 02:55:00,67.1,58.0,29.90,NW,315,2.8,3.0,73,0.00,,,0.00,Rainwise IP-100,2017-06-25 06:55:00,
2017-06-25 03:00:00,67.1,58.0,29.90,NW,315,2.3,3.0,73,0.00,,,0.00,Rainwise IP-100,2017-06-25 07:00:00,
2017-06-25 03:05:00,67.0,58.0,29.90,NW,315,3.3,3.3,73,0.00,,,0.00,Rainwise IP-100,2017-06-25 07:05:00,
2017-06-25 03:10:00,67.0,59.0,29.90,NW,315,3.3,3.3,74,0.00,,,0.00,Rainwise IP-100,2017-06-25 07:10:00,
2017-06-25 03:15:00,66.9,59.0,29.90,NW,315,4.0,4.0,74,0.00,,,0.00,Rainwise IP-100,2017-06-25 07:15:00,
2017-06-25 03:20:00,66.8,58.0,29.90,NNW,337,4.2,5.0,74,0.00,,,0.00,Rainwise IP-100,2017-06-25 07:20:00,
2017-06-25 03:25:00,66.9,59.0,29.90,NNW,337,4.0,5.0,74,0.00,,,0.00,Rainwise IP-100,2017-06-25 07:25:00,
2017-06-25 03:30:00,67.2,59.0,29.90,NW,315,3.3,4.0,74,0.00,,,0.00,Rainwise IP-100,2017-06-25 07:30:00,
2017-06-25 03:35:00,67.1,59.0,29.90,NW,315,2.8,4.0,74,0.00,,,0.00,Rainwise IP-100,2017-06-25 07:35:00,
2017-06-25 03:40:00,66.9,59.0,29.91,NW,315,3.0,4.0,74,0.00,,,0.00,Rainwise IP-100,2017-06-25 07:40:00,
2017-06-25 03:45:00,66.7,58.0,29.90,NW,315,3.0,4.0,74,0.00,,,0.00,Rainwise IP-100,2017-06-25 07:45:00,
2017-06-25 03:50:00,66.5,59.0,29.91,NW,315,2.8,4.0,75,0.00,,,0.00,Rainwise IP-100,2017-06-25 07:50:00,
2017-06-25 03:55:00,66.2,58.0,29.90,NW,315,2.8,4.0,75,0.00,,,0.00,Rainwise IP-100,2017-06-25 07:55:00,
2017-06-25 04:00:00,66.1,58.0,29.91,NNW,337,3.5,4.0,76,0.00,,,0.00,Rainwise IP-100,2017-06-25 08:00:00,
2017-06-25 04:05:00,66.0,58.0,29.90,NNW,337,3.7,4.0,76,0.00,,,0.00,Rainwise IP-100,2017-06-25 08:05:00,
2017-06-25 04:10:00,66.0,58.0,29.91,NNW,337,3.5,4.0,77,0.00,,,0.00,Rainwise IP-100,2017-06-25 08:10:00,
2017-06-25 04:11:00,66.0,58.0,29.91,NNW,337,2.6,4.0,77,0.00,,,0.00,Rainwise IP-100,2017-06-25 08:11:00,
2017-06-25 04:16:00,65.9,58.0,29.91,NNW,337,2.6,4.0,77,0.00,,,0.00,Rainwise IP-100,2017-06-25 08:16:00,
2017-06-25 04:21:00,65.7,58.0,29.91,NNW,337,2.3,3.0,77,0.00,,,0.00,Rainwise IP-100,2017-06-25 08:21:00,
2017-06-25 04:26:00,65.5,58.0,29.91,NNW,337,3.3,4.0,78,0.00,,,0.00,Rainwise IP-100,2017-06-25 08:26:00,
2017-06-25 04:31:00,65.5,58.0,29.92,NNW,337,2.3,4.0,78,0.00,,,0.00,Rainwise IP-100,2017-06-25 08:31:00,
2017-06-25 04:36:00,65.3,57.0,29.92,NNW,337,2.6,3.0,78,0.00,,,0.00,Rainwise IP-100,2017-06-25 08:36:00,
2017-06-25 04:41:00,65.2,58.0,29.91,NNW,337,2.6,3.0,79,0.00,,,0.00,Rainwise IP-100,2017-06-25 08:41:00,
2017-06-25 04:46:00,65.1,58.0,29.92,NNW,337,3.0,3.0,79,0.00,,,0.00,Rainwise IP-100,2017-06-25 08:46:00,
2017-06-25 04:51:00,64.9,58.0,29.92,NNW,337,2.8,3.0,79,0.00,,,0.00,Rainwise IP-100,2017-06-25 08:51:00,
2017-06-25 04:56:00,64.7,58.0,29.91,NNW,337,2.8,3.0,80,0.00,,,0.00,Rainwise IP-100,2017-06-25 08:56:00,
2017-06-25 05:01:00,64.5,58.0,29.92,NNW,337,2.6,3.0,80,0.00,,,0.00,Rainwise IP-100,2017-06-25 09:01:00,
2017-06-25 05:06:00,64.4,58.0,29.92,NNW,337,2.3,3.0,81,0.00,,,0.00,Rainwise IP-100,2017-06-25 09:06:00,
2017-06-25 05:11:00,64.3,58.0,29.93,NNW,337,1.6,3.0,81,0.00,,,0.00,Rainwise IP-100,2017-06-25 09:11:00,
2017-06-25 05:16:00,64.3,58.0,29.93,NNW,337,1.9,2.0,82,0.00,,,0.00,Rainwise IP-100,2017-06-25 09:16:00,
2017-06-25 05:21:00,64.1,58.0,29.93,NNW,337,1.4,2.0,82,0.00,,,0.00,Rainwise IP-100,2017-06-25 09:21:00,
2017-06-25 05:26:00,63.9,58.0,29.93,NNW,337,1.9,2.0,82,0.00,,,0.00,Rainwise IP-100,2017-06-25 09:26:00,
2017-06-25 05:31:00,63.8,58.0,29.93,NNW,337,1.9,2.0,83,0.00,,,0.00,Rainwise IP-100,2017-06-25 09:31:00,
2017-06-25 05:36:00,63.6,58.0,29.93,NNW,337,0.0,2.0,83,0.00,,,0.00,Rainwise IP-100,2017-06-25 09:36:00,
2017-06-25 05:41:00,63.5,59.0,29.93,NNW,337,0.0,2.0,84,0.00,,,0.00,Rainwise IP-100,2017-06-25 09:41:00,
2017-06-25 05:46:00,63.3,58.0,29.93,NNW,337,0.0,1.0,84,0.00,,,0.00,Rainwise IP-100,2017-06-25 09:46:00,
2017-06-25 05:51:00,63.2,58.0,29.93,NNW,337,0.0,0.0,85,0.00,,,0.00,Rainwise IP-100,2017-06-25 09:51:00,
2017-06-25 05:56:00,62.9,59.0,29.93,NNW,337,0.0,0.0,86,0.00,,,0.00,Rainwise IP-100,2017-06-25 09:56:00,
2017-06-25 06:01:00,62.6,59.0,29.94,NNW,337,0.0,0.0,87,0.00,,,0.00,Rainwise IP-100,2017-06-25 10:01:00,
2017-06-25 06:06:00,62.4,59.0,29.93,NNW,337,0.0,0.0,87,0.00,,,0.00,Rainwise IP-100,2017-06-25 10:06:00,
2017-06-25 06:11:00,62.2,58.0,29.93,NNW,337,0.0,0.0,88,0.00,,,0.00,Rainwise IP-100,2017-06-25 10:11:00,
2017-06-25 06:16:00,62.0,58.0,29.94,NNW,337,0.0,0.0,88,0.00,,,0.00,Rainwise IP-100,2017-06-25 10:16:00,
2017-06-25 06:21:00,62.0,58.0,29.93,NNW,337,0.0,0.0,88,0.00,,,0.00,Rainwise IP-100,2017-06-25 10:21:00,
2017-06-25 06:26:00,62.3,58.0,29.94,NNW,337,0.0,0.0,88,0.00,,,0.00,Rainwise IP-100,2017-06-25 10:26:00,
2017-06-25 06:31:00,62.6,59.0,29.94,NNW,337,0.0,0.0,87,0.00,,,0.00,Rainwise IP-100,2017-06-25 10:31:00,
2017-06-25 06:36:00,62.9,59.0,29.95,NNW,337,0.0,0.0,86,0.00,,,0.00,Rainwise IP-100,2017-06-25 10:36:00,
2017-06-25 06:41:00,63.1,59.0,29.94,NNW,337,0.0,0.0,86,0.00,,,0.00,Rainwise IP-100,2017-06-25 10:41:00,
2017-06-25 06:46:00,63.1,59.0,29.94,NNW,337,0.0,0.0,86,0.00,,,0.00,Rainwise IP-100,2017-06-25 10:46:00,
2017-06-25 06:51:00,63.1,59.0,29.95,NNW,337,0.0,0.0,87,0.00,,,0.00,Rainwise IP-100,2017-06-25 10:51:00,
2017-06-25 06:56:00,62.9,59.0,29.95,NNW,337,0.0,0.0,88,0.00,,,0.00,Rainwise IP-100,2017-06-25 10:56:00,
2017-06-25 07:01:00,63.0,60.0,29.95,NNW,337,0.0,0.0,89,0.00,,,0.00,Rainwise IP-100,2017-06-25 11:01:00,
2017-06-25 07:06:00,63.3,60.0,29.95,NNW,337,0.0,0.0,89,0.00,,,0.00,Rainwise IP-100,2017-06-25 11:06:00,
2017-06-25 07:11:00,63.6,60.0,29.95,NNW,337,0.0,0.0,89,0.00,,,0.00,Rainwise IP-100,2017-06-25 11:11:00,
2017-06-25 07:16:00,64.0,60.0,29.95,NNW,337,0.0,0.0,88,0.00,,,0.00,Rainwise IP-100,2017-06-25 11:16:00,
2017-06-25 07:21:00,64.4,61.0,29.96,NNW,337,0.0,0.0,88,0.00,,,0.00,Rainwise IP-100,2017-06-25 11:21:00,
2017-06-25 07:26:00,64.7,60.0,29.95,NNW,337,0.0,0.0,87,0.00,,,0.00,Rainwise IP-100,2017-06-25 11:26:00,
2017-06-25 07:31:00,65.2,61.0,29.95,NNW,337,0.0,0.0,87,0.00,,,0.00,Rainwise IP-100,2017-06-25 11:31:00,
2017-06-25 07:36:00,65.5,61.0,29.96,NNW,337,0.0,0.0,86,0.00,,,0.00,Rainwise IP-100,2017-06-25 11:36:00,
2017-06-25 07:41:00,65.9,61.0,29.97,NNW,337,0.0,0.0,86,0.00,,,0.00,Rainwise IP-100,2017-06-25 11:41:00,
2017-06-25 07:46:00,66.2,61.0,29.96,NNW,337,0.0,0.0,85,0.00,,,0.00,Rainwise IP-100,2017-06-25 11:46:00,
2017-06-25 07:51:00,66.5,61.0,29.96,NNW,337,0.0,0.0,84,0.00,,,0.00,Rainwise IP-100,2017-06-25 11:51:00,
2017-06-25 07:56:00,66.8,61.0,29.96,NNW,337,0.0,0.0,84,0.00,,,0.00,Rainwise IP-100,2017-06-25 11:56:00,
2017-06-25 08:01:00,67.0,62.0,29.96,NNW,337,0.0,0.0,83,0.00,,,0.00,Rainwise IP-100,2017-06-25 12:01:00,
2017-06-25 08:06:00,67.3,62.0,29.96,NNW,337,0.0,0.0,83,0.00,,,0.00,Rainwise IP-100,2017-06-25 12:06:00,
2017-06-25 08:11:00,67.7,62.0,29.96,NNW,337,0.0,0.0,82,0.00,,,0.00,Rainwise IP-100,2017-06-25 12:11:00,
2017-06-25 08:16:00,67.9,62.0,29.96,SW,225,0.0,1.0,81,0.00,,,0.00,Rainwise IP-100,2017-06-25 12:16:00,
2017-06-25 08:21:00,68.1,62.0,29.96,SW,225,0.0,0.0,81,0.00,,,0.00,Rainwise IP-100,2017-06-25 12:21:00,
2017-06-25 08:22:00,68.1,62.0,29.96,SW,225,0.0,0.0,81,0.00,,,0.00,Rainwise IP-100,2017-06-25 12:22:00,
2017-06-25 08:26:00,68.3,61.0,29.96,SW,225,0.0,0.0,79,0.00,,,0.00,Rainwise IP-100,2017-06-25 12:26:00,
2017-06-25 08:32:00,68.7,61.0,29.96,SW,225,0.0,0.0,79,0.00,,,0.00,Rainwise IP-100,2017-06-25 12:32:00,
2017-06-25 08:33:00,68.8,61.0,29.96,SW,225,0.0,0.0,79,0.00,,,0.00,Rainwise IP-100,2017-06-25 12:33:00,
2017-06-25 08:37:00,69.1,61.0,29.96,SSW,202,0.0,0.0,78,0.00,,,0.00,Rainwise IP-100,2017-06-25 12:37:00,
2017-06-25 08:42:00,69.6,61.0,29.97,SSW,202,0.0,0.0,74,0.00,,,0.00,Rainwise IP-100,2017-06-25 12:42:00,
2017-06-25 08:47:00,70.0,61.0,29.96,SSW,202,0.0,1.0,73,0.00,,,0.00,Rainwise IP-100,2017-06-25 12:47:00,
2017-06-25 08:52:00,70.2,60.0,29.96,SSW,202,1.2,2.0,72,0.00,,,0.00,Rainwise IP-100,2017-06-25 12:52:00,
2017-06-25 08:57:00,70.5,60.0,29.97,SSW,202,0.0,2.0,70,0.00,,,0.00,Rainwise IP-100,2017-06-25 12:57:00,
2017-06-25 09:02:00,70.6,60.0,29.97,SSW,202,0.0,2.0,70,0.00,,,0.00,Rainwise IP-100,2017-06-25 13:02:00,
2017-06-25 09:07:00,70.7,60.0,29.97,SSW,202,0.0,1.0,70,0.00,,,0.00,Rainwise IP-100,2017-06-25 13:07:00,
2017-06-25 09:12:00,70.9,60.0,29.97,SSW,202,0.0,0.0,70,0.00,,,0.00,Rainwise IP-100,2017-06-25 13:12:00,
2017-06-25 09:17:00,71.2,60.0,29.97,SSW,202,0.0,2.0,69,0.00,,,0.00,Rainwise IP-100,2017-06-25 13:17:00,
2017-06-25 09:22:00,71.4,60.0,29.97,SW,225,0.0,2.0,69,0.00,,,0.00,Rainwise IP-100,2017-06-25 13:22:00,
2017-06-25 09:27:00,71.7,60.0,29.97,SW,225,0.0,1.0,68,0.00,,,0.00,Rainwise IP-100,2017-06-25 13:27:00,
2017-06-25 09:32:00,72.0,60.0,29.96,SE,135,1.6,2.0,66,0.00,,,0.00,Rainwise IP-100,2017-06-25 13:32:00,
2017-06-25 09:37:00,72.4,60.0,29.97,South,180,1.9,4.0,65,0.00,,,0.00,Rainwise IP-100,2017-06-25 13:37:00,
2017-06-25 09:42:00,72.7,60.0,29.97,NNW,337,0.0,3.0,64,0.00,,,0.00,Rainwise IP-100,2017-06-25 13:42:00,
2017-06-25 09:47:00,72.8,59.0,29.97,WSW,247,1.2,1.2,62,0.00,,,0.00,Rainwise IP-100,2017-06-25 13:47:00,
2017-06-25 09:52:00,73.1,59.0,29.96,WSW,247,0.0,1.0,62,0.00,,,0.00,Rainwise IP-100,2017-06-25 13:52:00,
2017-06-25 09:57:00,73.3,59.0,29.96,SW,225,0.0,2.0,62,0.00,,,0.00,Rainwise IP-100,2017-06-25 13:57:00,
2017-06-25 10:02:00,73.4,59.0,29.96,WNW,292,2.6,2.6,62,0.00,,,0.00,Rainwise IP-100,2017-06-25 14:02:00,
2017-06-25 10:07:00,73.6,59.0,29.97,WNW,292,0.0,2.0,61,0.00,,,0.00,Rainwise IP-100,2017-06-25 14:07:00,